Location: Salillas
(41.9950°N, 0.2228°W)
Time: 09:06:35
(UTC+00:00)

Cosmos 2084 Rocket - Pass Details

Date: 29 March 2020
Orbit: 561 x 620 km, 62.8° (Epoch: 03 June)

Event Time Altitude Azimuth Distance (km) Brightness Sun altitude
Rises 20:28:52 0° 327° (NNW) 2,882 8.0 -23.0°
Reaches altitude 10° 20:31:11 10° 332° (NNW) 1,980 6.9 -23.3°
Enters shadow 20:35:15 51° 32° (NNE) 779 3.9 -24.0°
